Showing default

FLOCK 4G 34, 62650

Orbit data source: Space-Track

FLOCK 4G 34, 62650 is a payload satellite owned by Planet (US) in SSO that was launched on Tue, 14 Jan 2025 UTC via an FALCON 9 launch vehicle from the Air Force Western Test Range (AFWTR). Payload-class satellites include a variety of spacecraft equipped with specific instruments for various scientific and technological missions. These include communications satellites like Starlink; space stations such as the ISS; scientific satellites like the Hubble; Earth observation satellites from companies like Planet Labs, Umbra, and HawkEye 360; GPS; miniature CubeSats for education and research; and military/defense satellites.

Loading next visibility...
Identifier
62650, 2025-009AT
Orbit
SSO
Country
Flag of USUS
Related business
Manufacturer
Planet
Mission
Partially operational Commercial Imaging
Bus & Motor
CUBESAT 3U, Unknown motor
Mass
5.7 kg wet, 5.7 kg dry
Launch date (UTC)
2025-01-14 (2 years ago)
Launch vehicle
FALCON 9
Launch site
Air Force Western Test Range (AFWTR)
Object type
Payload
Rocket body
Debris
Shape & HBR
Box + 2 Pan, 1.0 m
Radar Cross Section
0.072 m², Medium (>0.1 m² and < 1m²)

Expand to show TLE details & history
Last TLE update: 9 hours ago

TLE from 9 hours ago
0 FLOCK 4G 34
1 62650U 25009AT  26238.17716070  .00007190  00000-0  24750-3 0  9993
2 62650  97.3941 319.4317 0003390  78.3445 281.8176 15.30350059 89616
Epoch: 2026-08-26T04:15Z
TLE epoch observation values (Epoch: 2026-08-26T04:15:06.684Z)
Latitude
-0.00003°
Longitude
-78.78005°
Altitude
477.397 km
Speed
7.627 km/s
True Right ascension
21h 17m 43s
True Declination
0° 00' 00"
Sunlit
Object was in full shadow at epoch
Visualization orbit readout
Latitude
Unknown
Longitude
Unknown
Altitude
Unknown
Speed
Unknown
Apparent Right ascension
Unknown
Apparent Declination
Unknown
Sunlit
N/A
Visualization observer readout
Local Sidereal Time
04:37:50
Azimuth
Unknown
Elevation
Unknown
Doppler factor
Unknown
Orbital elements
Apogee altitude
474.041 km
Perigee altitude
469.396 km
Semi-major axis
6,849.856 km
Eccentricity
0.00034
Inclination
97.3941°
RAAN
319.4317°
Arg. of periapsis
78.3445°
True anomaly
281.77957°
Mean anomaly
281.8176°
Eccentric anomaly
281.79859°
Mean motion
3.82843 °/min
Orbital period
94.03 mins
BSTAR
0.0002475
Loading maneuver chart data...
Computing Atmospheric mass density...
Loading historical data...
Loading historical data...
Loading historical data...
Loading historical data...
Loading historical data...
Loading historical data...
Loading historical data...

Documentation

Showing up to 5 results
|